QPF
0.09 0.10 0.12 0.12 0.10 0.08 0.08 0.05 0.07 0.08 0.07 0.07 0.06 0.08 0.08 0.07 0.07 0.09 0.11 0.10 0.08 0.09 0.09 0.09 0.10 0.08 0.06 0.07 0.06 0.06 0.06 0.05 0.03 0.04 0.04 0.04 0.03 0.04 0.05 0.05 0.07 0.07 0.04
0.09 0.11 0.12 0.10 0.08 0.07 0.08 0.06 0.07 0.08 0.08 0.06 0.06 0.07 0.09 0.09 0.08 0.10 0.10 0.07 0.07 0.09 0.12 0.12 0.11 0.10 0.07 0.07 0.09 0.09 0.07 0.05 0.04 0.05 0.05 0.05 0.05 0.04 0.04 0.06 0.07 0.07 0.04
0.08 0.09 0.09 0.07 0.06 0.06 0.05 0.06 0.06 0.06 0.07 0.06 0.06 0.06 0.08 0.10 0.09 0.09 0.08 0.07 0.09 0.10 0.11 0.11 0.11 0.09 0.08 0.09 0.09 0.09 0.09 0.08 0.06 0.07 0.08 0.07 0.05 0.04 0.04 0.05 0.05 0.05 0.03
0.04 0.05 0.05 0.04 0.04 0.04 0.04 0.04 0.05 0.07 0.07 0.06 0.04 0.05 0.08 0.11 0.14 0.14 0.12 0.10 0.10 0.09 0.10 0.13 0.16 0.12 0.10 0.09 0.08 0.08 0.08 0.08 0.08 0.08 0.09 0.06 0.04 0.03 0.03 0.04 0.04 0.05 0.04
0.04 0.04 0.03 0.02 0.02 0.03 0.04 0.04 0.05 0.06 0.07 0.07 0.08 0.09 0.11 0.17 0.22 0.21 0.18 0.13 0.14 0.14 0.16 0.18 0.19 0.17 0.14 0.12 0.10 0.10 0.09 0.08 0.08 0.08 0.09 0.07 0.05 0.03 0.03 0.04 0.04 0.03 0.04
0.05 0.05 0.03 0.02 0.02 0.03 0.04 0.05 0.05 0.06 0.06 0.07 0.09 0.09 0.11 0.14 0.19 0.18 0.18 0.19 0.18 0.18 0.19 0.21 0.23 0.22 0.18 0.17 0.16 0.13 0.09 0.08 0.08 0.09 0.09 0.08 0.07 0.04 0.03 0.04 0.04 0.03 0.04
0.06 0.06 0.04 0.04 0.05 0.05 0.06 0.06 0.06 0.04 0.05 0.07 0.05 0.06 0.06 0.08 0.12 0.15 0.17 0.16 0.15 0.17 0.21 0.20 0.14 0.12 0.12 0.12 0.11 0.10 0.10 0.10 0.09 0.09 0.08 0.09 0.08 0.04 0.03 0.04 0.04 0.04 0.05
0.04 0.04 0.04 0.04 0.04 0.04 0.03 0.04 0.05 0.03 0.04 0.05 0.05 0.06 0.06 0.07 0.07 0.08 0.13 0.13 0.09 0.09 0.11 0.10 0.07 0.06 0.05 0.06 0.07 0.08 0.09 0.08 0.07 0.07 0.07 0.08 0.07 0.05 0.04 0.05 0.04 0.04 0.05
0.03 0.03 0.03 0.03 0.02 0.02 0.02 0.02 0.03 0.03 0.03 0.03 0.05 0.06 0.05 0.06 0.06 0.05 0.08 0.11 0.09 0.08 0.09 0.11 0.10 0.08 0.05 0.05 0.06 0.07 0.09 0.08 0.09 0.10 0.07 0.09 0.05 0.04 0.05 0.06 0.04 0.05 0.06
0.02 0.02 0.02 0.02 0.03 0.03 0.02 0.01 0.02 0.02 0.02 0.03 0.04 0.06 0.07 0.07 0.06 0.07 0.08 0.08 0.08 0.09 0.10 0.13 0.13 0.11 0.07 0.06 0.05 0.05 0.06 0.08 0.10 0.09 0.06 0.05 0.04 0.03 0.04 0.06 0.05 0.05 0.06
0.01 0.02 0.02 0.02 0.03 0.05 0.04 0.02 0.03 0.03 0.03 0.04 0.05 0.08 0.10 0.13 0.12 0.10 0.08 0.09 0.12 0.12 0.12 0.15 0.16 0.13 0.09 0.07 0.05 0.04 0.05 0.06 0.04 0.04 0.03 0.02 0.03 0.04 0.05 0.07 0.06 0.06 0.05
0.03 0.02 0.02 0.02 0.03 0.04 0.04 0.05 0.07 0.07 0.08 0.11 0.12 0.11 0.14 0.15 0.13 0.11 0.11 0.12 0.12 0.13 0.13 0.16 0.18 0.18 0.14 0.10 0.08 0.06 0.04 0.03 0.04 0.03 0.03 0.03 0.03 0.03 0.04 0.05 0.05 0.05 0.04
0.04 0.02 0.02 0.02 0.03 0.04 0.05 0.05 0.07 0.08 0.10 0.13 0.12 0.12 0.15 0.15 0.13 0.12 0.14 0.13 0.13 0.15 0.18 0.21 0.21 0.23 0.17 0.11 0.09 0.08 0.06 0.04 0.04 0.04 0.04 0.04 0.03 0.03 0.05 0.06 0.06 0.06 0.05
0.05 0.03 0.02 0.01 0.01 0.02 0.04 0.04 0.04 0.05 0.06 0.09 0.14 0.13 0.13 0.16 0.13 0.12 0.11 0.13 0.15 0.15 0.17 0.18 0.14 0.14 0.11 0.09 0.08 0.07 0.07 0.07 0.07 0.07 0.07 0.05 0.04 0.04 0.05 0.07 0.08 0.09 0.06
0.04 0.05 0.03 0.02 0.01 0.02 0.03 0.04 0.03 0.04 0.04 0.05 0.11 0.12 0.09 0.10 0.11 0.14 0.17 0.18 0.15 0.12 0.12 0.11 0.10 0.09 0.08 0.08 0.07 0.06 0.05 0.07 0.09 0.11 0.10 0.08 0.05 0.05 0.05 0.05 0.08 0.11 0.08
0.02 0.04 0.05 0.02 0.02 0.03 0.04 0.05 0.05 0.04 0.05 0.04 0.06 0.09 0.10 0.09 0.11 0.15 0.18 0.19 0.17 0.13 0.12 0.11 0.10 0.10 0.09 0.08 0.06 0.06 0.07 0.08 0.10 0.11 0.09 0.10 0.07 0.05 0.04 0.04 0.04 0.06 0.08
0.03 0.04 0.04 0.01 0.02 0.03 0.03 0.04 0.04 0.04 0.05 0.05 0.06 0.06 0.07 0.08 0.11 0.14 0.17 0.20 0.19 0.18 0.16 0.13 0.11 0.11 0.10 0.09 0.07 0.07 0.07 0.08 0.10 0.08 0.06 0.08 0.05 0.04 0.04 0.04 0.04 0.04 0.06
0.04 0.03 0.03 0.01 0.02 0.02 0.03 0.04 0.04 0.05 0.05 0.06 0.06 0.05 0.06 0.06 0.08 0.12 0.15 0.18 0.17 0.16 0.17 0.15 0.10 0.09 0.10 0.10 0.10 0.09 0.07 0.07 0.07 0.06 0.05 0.06 0.07 0.06 0.04 0.04 0.05 0.04 0.04
0.02 0.03 0.03 0.03 0.03 0.03 0.03 0.04 0.04 0.05 0.04 0.05 0.05 0.05 0.05 0.05 0.04 0.06 0.09 0.11 0.11 0.12 0.11 0.09 0.08 0.07 0.08 0.09 0.10 0.11 0.08 0.06 0.05 0.05 0.04 0.04 0.05 0.06 0.05 0.05 0.06 0.06 0.06
0.02 0.02 0.03 0.03 0.03 0.04 0.05 0.06 0.04 0.05 0.04 0.04 0.06 0.06 0.05 0.05 0.04 0.04 0.06 0.07 0.06 0.07 0.07 0.08 0.09 0.10 0.09 0.08 0.09 0.10 0.07 0.05 0.04 0.05 0.05 0.05 0.06 0.05 0.05 0.07 0.08 0.07 0.06
0.02 0.03 0.03 0.02 0.02 0.03 0.05 0.06 0.05 0.06 0.06 0.07 0.06 0.06 0.05 0.04 0.04 0.04 0.05 0.08 0.06 0.07 0.07 0.08 0.10 0.10 0.11 0.09 0.10 0.11 0.09 0.08 0.08 0.06 0.05 0.06 0.07 0.06 0.07 0.08 0.08 0.08 0.06
0.03 0.04 0.04 0.02 0.02 0.03 0.04 0.04 0.05 0.05 0.05 0.05 0.05 0.06 0.06 0.04 0.05 0.05 0.06 0.06 0.08 0.09 0.09 0.09 0.10 0.11 0.11 0.11 0.13 0.14 0.13 0.13 0.12 0.10 0.08 0.06 0.07 0.08 0.08 0.07 0.06 0.07 0.06
0.04 0.09 0.06 0.04 0.03 0.03 0.04 0.04 0.04 0.05 0.05 0.06 0.06 0.06 0.05 0.04 0.04 0.05 0.05 0.05 0.07 0.07 0.09 0.10 0.12 0.13 0.12 0.13 0.13 0.14 0.15 0.15 0.14 0.12 0.10 0.06 0.06 0.08 0.07 0.08 0.07 0.08 0.08
0.03 0.10 0.13 0.07 0.06 0.05 0.05 0.05 0.04 0.04 0.04 0.05 0.06 0.06 0.06 0.05 0.04 0.06 0.06 0.06 0.07 0.07 0.08 0.07 0.11 0.12 0.11 0.09 0.10 0.11 0.11 0.13 0.16 0.13 0.10 0.07 0.06 0.06 0.06 0.07 0.07 0.08 0.10
0.03 0.04 0.06 0.08 0.09 0.09 0.07 0.06 0.04 0.03 0.03 0.04 0.05 0.05 0.07 0.06 0.05 0.05 0.07 0.07 0.08 0.08 0.07 0.07 0.09 0.08 0.08 0.08 0.09 0.09 0.09 0.11 0.12 0.12 0.12 0.11 0.10 0.08 0.06 0.07 0.07 0.09 0.11
0.02 0.02 0.01 0.02 0.04 0.08 0.06 0.04 0.03 0.03 0.04 0.05 0.04 0.04 0.04 0.05 0.05 0.05 0.06 0.06 0.07 0.07 0.07 0.07 0.07 0.06 0.06 0.08 0.09 0.08 0.08 0.09 0.11 0.14 0.15 0.15 0.15 0.13 0.10 0.09 0.09 0.09 0.09
MSLP
1001.57 1000.98 1000.65 1000.55 1000.55 1000.49 1000.24 999.72 998.93 997.95 996.93 996.05 995.45 995.24 995.44 995.99 996.79 997.73 998.67 999.57 1000.40 1001.19 1001.97 1002.79 1003.67 1004.61 1005.55 1006.45 1007.25 1007.92 1008.46 1008.91 1009.31 1009.71 1010.15 1010.65 1011.17 1011.69 1012.16 1012.56 1012.87 1013.10 1013.31
1001.41 1000.87 1000.57 1000.47 1000.42 1000.26 999.87 999.18 998.20 997.04 995.86 994.86 994.21 993.99 994.22 994.83 995.73 996.76 997.81 998.79 999.69 1000.53 1001.36 1002.22 1003.14 1004.11 1005.11 1006.06 1006.92 1007.65 1008.25 1008.75 1009.19 1009.63 1010.10 1010.61 1011.16 1011.70 1012.21 1012.64 1012.99 1013.27 1013.51
1001.07 1000.61 1000.38 1000.32 1000.26 1000.05 999.55 998.72 997.59 996.27 994.95 993.83 993.10 992.84 993.07 993.72 994.68 995.78 996.91 997.98 998.96 999.87 1000.76 1001.67 1002.64 1003.66 1004.70 1005.70 1006.62 1007.41 1008.07 1008.63 1009.12 1009.60 1010.10 1010.63 1011.19 1011.74 1012.26 1012.72 1013.10 1013.41 1013.67
1000.58 1000.23 1000.09 1000.10 1000.06 999.83 999.28 998.35 997.10 995.66 994.22 993.00 992.18 991.87 992.07 992.72 993.70 994.87 996.07 997.23 998.30 999.30 1000.27 1001.25 1002.27 1003.34 1004.42 1005.46 1006.41 1007.25 1007.97 1008.57 1009.11 1009.62 1010.15 1010.69 1011.25 1011.81 1012.34 1012.80 1013.20 1013.53 1013.83
1000.02 999.78 999.75 999.83 999.85 999.63 999.05 998.07 996.75 995.23 993.71 992.41 991.51 991.14 991.29 991.92 992.91 994.10 995.37 996.61 997.79 998.89 999.96 1001.03 1002.11 1003.22 1004.32 1005.38 1006.35 1007.20 1007.94 1008.57 1009.14 1009.68 1010.23 1010.78 1011.35 1011.91 1012.44 1012.91 1013.32 1013.67 1013.98
999.51 999.37 999.44 999.59 999.66 999.46 998.89 997.90 996.56 995.01 993.45 992.11 991.16 990.72 990.83 991.41 992.38 993.59 994.90 996.22 997.50 998.72 999.89 1001.04 1002.19 1003.32 1004.43 1005.47 1006.42 1007.25 1007.97 1008.61 1009.18 1009.74 1010.30 1010.87 1011.45 1012.02 1012.55 1013.03 1013.45 1013.81 1014.14
999.18 999.12 999.26 999.46 999.55 999.37 998.82 997.86 996.54 995.02 993.48 992.14 991.18 990.70 990.75 991.28 992.21 993.39 994.73 996.11 997.46 998.78 1000.04 1001.27 1002.47 1003.61 1004.70 1005.69 1006.58 1007.35 1008.03 1008.63 1009.19 1009.75 1010.32 1010.91 1011.51 1012.09 1012.64 1013.14 1013.57 1013.95 1014.30
999.14 999.12 999.28 999.49 999.59 999.42 998.89 997.98 996.74 995.30 993.84 992.56 991.62 991.13 991.13 991.59 992.44 993.57 994.88 996.26 997.66 999.03 1000.36 1001.64 1002.86 1004.00 1005.04 1005.97 1006.77 1007.46 1008.06 1008.61 1009.13 1009.68 1010.26 1010.87 1011.50 1012.12 1012.69 1013.21 1013.67 1014.07 1014.43
999.43 999.43 999.57 999.75 999.81 999.64 999.14 998.30 997.17 995.86 994.54 993.37 992.49 992.01 991.96 992.34 993.08 994.11 995.33 996.65 998.03 999.41 1000.77 1002.07 1003.29 1004.40 1005.39 1006.23 1006.94 1007.54 1008.05 1008.52 1009.01 1009.54 1010.12 1010.76 1011.42 1012.07 1012.69 1013.24 1013.73 1014.15 1014.52
1000.03 1000.00 1000.10 1000.21 1000.22 1000.03 999.57 998.82 997.83 996.70 995.55 994.53 993.75 993.30 993.21 993.49 994.09 994.95 996.02 997.23 998.52 999.85 1001.18 1002.47 1003.67 1004.76 1005.69 1006.46 1007.09 1007.59 1008.02 1008.43 1008.87 1009.37 1009.95 1010.61 1011.30 1011.99 1012.64 1013.23 1013.74 1014.17 1014.55
1000.83 1000.78 1000.80 1000.84 1000.78 1000.57 1000.15 999.51 998.69 997.76 996.83 995.99 995.33 994.92 994.79 994.95 995.37 996.04 996.91 997.94 999.09 1000.32 1001.58 1002.82 1004.00 1005.05 1005.95 1006.68 1007.24 1007.68 1008.04 1008.39 1008.78 1009.25 1009.82 1010.48 1011.19 1011.90 1012.58 1013.20 1013.72 1014.16 1014.54
1001.72 1001.63 1001.59 1001.54 1001.43 1001.20 1000.83 1000.31 999.67 998.97 998.26 997.62 997.10 996.74 996.57 996.61 996.86 997.30 997.94 998.75 999.72 1000.81 1001.97 1003.16 1004.31 1005.35 1006.24 1006.95 1007.49 1007.89 1008.21 1008.51 1008.85 1009.28 1009.82 1010.45 1011.15 1011.87 1012.56 1013.18 1013.71 1014.15 1014.51
1002.58 1002.46 1002.36 1002.25 1002.08 1001.85 1001.54 1001.15 1000.70 1000.22 999.74 999.30 998.92 998.63 998.44 998.37 998.44 998.67 999.07 999.66 1000.43 1001.37 1002.43 1003.56 1004.68 1005.72 1006.63 1007.35 1007.90 1008.30 1008.59 1008.85 1009.15 1009.52 1010.00 1010.59 1011.25 1011.94 1012.61 1013.22 1013.74 1014.16 1014.51
1003.32 1003.18 1003.04 1002.87 1002.68 1002.46 1002.22 1001.96 1001.69 1001.42 1001.16 1000.90 1000.66 1000.44 1000.25 1000.10 1000.03 1000.08 1000.28 1000.68 1001.27 1002.07 1003.04 1004.11 1005.21 1006.27 1007.20 1007.96 1008.53 1008.94 1009.23 1009.46 1009.69 1010.00 1010.40 1010.91 1011.50 1012.14 1012.76 1013.34 1013.84 1014.24 1014.55
1003.89 1003.75 1003.57 1003.38 1003.18 1002.98 1002.81 1002.67 1002.57 1002.48 1002.41 1002.32 1002.22 1002.07 1001.90 1001.72 1001.57 1001.49 1001.56 1001.81 1002.27 1002.96 1003.84 1004.87 1005.96 1007.03 1007.99 1008.78 1009.39 1009.82 1010.09 1010.29 1010.46 1010.68 1010.98 1011.39 1011.89 1012.44 1013.00 1013.53 1013.99 1014.36 1014.65
1004.29 1004.15 1003.96 1003.75 1003.56 1003.40 1003.30 1003.26 1003.28 1003.35 1003.42 1003.48 1003.49 1003.44 1003.32 1003.15 1002.98 1002.86 1002.86 1003.03 1003.42 1004.04 1004.87 1005.85 1006.92 1007.99 1008.96 1009.78 1010.40 1010.83 1011.09 1011.23 1011.34 1011.46 1011.66 1011.95 1012.33 1012.79 1013.28 1013.76 1014.18 1014.52 1014.78
1004.57 1004.42 1004.23 1004.02 1003.84 1003.72 1003.68 1003.72 1003.84 1004.01 1004.20 1004.36 1004.47 1004.50 1004.46 1004.35 1004.22 1004.13 1004.14 1004.31 1004.67 1005.26 1006.05 1007.00 1008.03 1009.07 1010.02 1010.82 1011.43 1011.84 1012.07 1012.16 1012.19 1012.21 1012.30 1012.47 1012.75 1013.11 1013.53 1013.95 1014.34 1014.66 1014.89
1004.76 1004.62 1004.42 1004.23 1004.07 1003.99 1003.99 1004.09 1004.27 1004.51 1004.76 1005.00 1005.18 1005.28 1005.32 1005.30 1005.26 1005.25 1005.33 1005.55 1005.94 1006.52 1007.28 1008.18 1009.15 1010.13 1011.02 1011.77 1012.33 1012.70 1012.88 1012.91 1012.87 1012.81 1012.79 1012.87 1013.04 1013.32 1013.67 1014.04 1014.40 1014.70 1014.91
1004.89 1004.76 1004.58 1004.40 1004.27 1004.23 1004.27 1004.41 1004.63 1004.89 1005.17 1005.44 1005.66 1005.83 1005.94 1006.01 1006.08 1006.18 1006.36 1006.66 1007.10 1007.69 1008.42 1009.26 1010.15 1011.03 1011.82 1012.49 1012.98 1013.28 1013.40 1013.38 1013.27 1013.15 1013.06 1013.05 1013.14 1013.35 1013.63 1013.96 1014.28 1014.57 1014.77
1004.97 1004.86 1004.70 1004.56 1004.47 1004.46 1004.55 1004.71 1004.94 1005.22 1005.49 1005.76 1005.99 1006.18 1006.35 1006.51 1006.68 1006.89 1007.18 1007.56 1008.05 1008.65 1009.34 1010.10 1010.88 1011.64 1012.32 1012.87 1013.27 1013.50 1013.57 1013.51 1013.36 1013.19 1013.05 1012.99 1013.02 1013.15 1013.38 1013.66 1013.95 1014.21 1014.41
1004.98 1004.91 1004.80 1004.71 1004.67 1004.71 1004.83 1005.02 1005.26 1005.52 1005.78 1006.01 1006.23 1006.42 1006.62 1006.83 1007.07 1007.37 1007.74 1008.19 1008.71 1009.30 1009.94 1010.60 1011.26 1011.89 1012.44 1012.88 1013.19 1013.35 1013.39 1013.31 1013.15 1012.96 1012.80 1012.69 1012.67 1012.75 1012.92 1013.14 1013.39 1013.61 1013.79
1004.90 1004.90 1004.85 1004.82 1004.85 1004.94 1005.11 1005.33 1005.58 1005.82 1006.05 1006.25 1006.43 1006.59 1006.78 1007.00 1007.28 1007.62 1008.03 1008.51 1009.03 1009.59 1010.16 1010.73 1011.27 1011.77 1012.19 1012.53 1012.77 1012.90 1012.91 1012.83 1012.69 1012.51 1012.34 1012.21 1012.15 1012.17 1012.26 1012.41 1012.59 1012.76 1012.90
1004.73 1004.81 1004.84 1004.89 1004.99 1005.15 1005.36 1005.62 1005.88 1006.12 1006.32 1006.48 1006.61 1006.73 1006.87 1007.07 1007.33 1007.66 1008.07 1008.53 1009.02 1009.53 1010.02 1010.49 1010.92 1011.31 1011.64 1011.90 1012.09 1012.20 1012.23 1012.18 1012.07 1011.92 1011.75 1011.61 1011.50 1011.45 1011.46 1011.51 1011.60 1011.70 1011.78
1004.48 1004.65 1004.78 1004.90 1005.07 1005.29 1005.56 1005.86 1006.14 1006.38 1006.57 1006.69 1006.77 1006.83 1006.92 1007.06 1007.27 1007.55 1007.91 1008.32 1008.75 1009.18 1009.59 1009.97 1010.31 1010.61 1010.87 1011.08 1011.25 1011.37 1011.42 1011.42 1011.36 1011.25 1011.10 1010.94 1010.78 1010.65 1010.56 1010.51 1010.48 1010.48 1010.49
1004.18 1004.44 1004.65 1004.85 1005.08 1005.36 1005.68 1006.01 1006.32 1006.58 1006.75 1006.86 1006.90 1006.91 1006.94 1007.00 1007.14 1007.35 1007.63 1007.96 1008.31 1008.66 1008.98 1009.28 1009.54 1009.77 1009.98 1010.17 1010.34 1010.47 1010.58 1010.62 1010.61 1010.54 1010.41 1010.23 1010.03 1009.82 1009.63 1009.45 1009.31 1009.20 1009.12
1003.85 1004.20 1004.49 1004.75 1005.03 1005.35 1005.71 1006.07 1006.40 1006.68 1006.86 1006.96 1006.98 1006.95 1006.93 1006.93 1006.99 1007.11 1007.30 1007.54 1007.80 1008.06 1008.30 1008.52 1008.71 1008.89 1009.07 1009.24 1009.41 1009.58 1009.72 1009.82 1009.85 1009.82 1009.70 1009.51 1009.27 1008.99 1008.70 1008.42 1008.16 1007.94 1007.77
Thickness
5807 5806 5802 5799 5797 5795 5794 5793 5792 5791 5791 5790 5788 5787 5786 5784 5782 5781 5779 5777 5775 5774 5773 5772 5770 5769 5768 5767 5767 5766 5765 5764 5764 5764 5764 5763 5763 5762 5762 5761 5761 5760 5759
5810 5806 5802 5799 5797 5795 5793 5792 5791 5790 5790 5789 5787 5786 5784 5783 5781 5779 5777 5776 5774 5773 5772 5770 5769 5767 5766 5766 5765 5765 5765 5764 5764 5763 5763 5762 5762 5761 5761 5761 5760 5759 5758
5811 5806 5802 5799 5796 5794 5792 5791 5790 5789 5788 5787 5786 5784 5783 5781 5780 5778 5776 5775 5773 5772 5770 5769 5767 5766 5765 5765 5764 5764 5764 5764 5763 5763 5763 5763 5762 5761 5760 5760 5759 5758 5757
5812 5807 5802 5798 5795 5793 5791 5790 5789 5788 5787 5786 5785 5783 5782 5780 5778 5777 5775 5773 5772 5771 5769 5768 5767 5766 5765 5764 5764 5764 5764 5763 5763 5763 5763 5763 5762 5761 5760 5759 5758 5757 5756
5813 5808 5802 5798 5795 5792 5790 5789 5788 5786 5786 5785 5784 5782 5780 5779 5777 5775 5774 5772 5770 5769 5768 5767 5766 5765 5765 5764 5764 5763 5763 5763 5763 5763 5763 5763 5762 5760 5759 5758 5757 5757 5756
5814 5808 5802 5798 5794 5792 5789 5787 5786 5785 5784 5783 5783 5781 5780 5778 5776 5774 5773 5771 5770 5768 5767 5767 5766 5765 5764 5764 5763 5763 5763 5763 5763 5764 5764 5763 5762 5760 5759 5758 5757 5757 5755
5814 5809 5802 5798 5794 5791 5789 5787 5786 5784 5783 5782 5782 5781 5779 5777 5776 5774 5772 5771 5770 5768 5767 5766 5765 5765 5764 5763 5763 5763 5763 5763 5763 5764 5765 5763 5762 5760 5759 5758 5757 5756 5755
5815 5809 5802 5797 5795 5792 5789 5787 5785 5784 5783 5782 5781 5781 5779 5777 5775 5774 5773 5772 5770 5769 5767 5766 5765 5765 5764 5764 5763 5763 5763 5763 5765 5766 5765 5764 5762 5761 5760 5759 5757 5756 5755
5816 5810 5804 5799 5795 5792 5789 5787 5785 5784 5783 5782 5781 5780 5779 5777 5776 5774 5773 5772 5771 5769 5767 5766 5765 5765 5765 5764 5764 5763 5763 5764 5764 5766 5766 5765 5763 5762 5760 5759 5758 5756 5755
5814 5810 5806 5802 5798 5794 5791 5788 5786 5784 5783 5781 5780 5779 5779 5777 5776 5775 5773 5772 5771 5770 5768 5767 5766 5765 5765 5765 5765 5764 5764 5764 5765 5766 5767 5766 5765 5764 5762 5760 5758 5757 5755
5810 5810 5807 5803 5799 5797 5794 5790 5787 5785 5783 5781 5780 5779 5779 5778 5778 5776 5775 5773 5772 5771 5769 5768 5767 5766 5765 5765 5765 5765 5764 5764 5766 5767 5767 5767 5766 5765 5763 5761 5759 5757 5756
5804 5806 5807 5803 5800 5797 5795 5791 5789 5787 5784 5783 5781 5780 5779 5779 5779 5778 5776 5774 5773 5772 5770 5769 5769 5768 5766 5766 5766 5765 5765 5766 5766 5767 5768 5767 5766 5765 5763 5762 5760 5758 5756
5804 5804 5804 5802 5799 5797 5795 5792 5790 5789 5786 5784 5782 5780 5779 5778 5778 5778 5776 5775 5774 5773 5772 5771 5769 5768 5769 5768 5768 5767 5767 5767 5768 5768 5768 5768 5767 5766 5764 5762 5760 5759 5757
5802 5801 5802 5801 5798 5795 5794 5792 5791 5789 5786 5785 5782 5781 5779 5777 5777 5777 5776 5775 5774 5774 5773 5772 5771 5770 5770 5769 5769 5768 5768 5768 5768 5768 5768 5768 5766 5766 5764 5763 5761 5759 5758
5800 5800 5800 5799 5796 5794 5792 5791 5790 5788 5787 5785 5782 5780 5779 5777 5776 5776 5775 5774 5774 5774 5773 5772 5771 5770 5769 5769 5769 5769 5768 5768 5768 5768 5767 5766 5766 5765 5763 5762 5761 5759 5758
5800 5799 5799 5798 5795 5793 5791 5789 5789 5788 5785 5784 5782 5780 5778 5777 5776 5775 5774 5773 5773 5773 5772 5772 5770 5769 5769 5769 5768 5768 5768 5767 5766 5766 5766 5765 5765 5763 5762 5761 5760 5759 5758
5800 5798 5797 5797 5794 5791 5789 5788 5788 5786 5785 5783 5781 5778 5777 5776 5775 5774 5773 5772 5771 5772 5771 5770 5769 5769 5768 5768 5767 5767 5767 5766 5766 5765 5765 5764 5763 5762 5761 5760 5759 5759 5758
5801 5797 5796 5796 5793 5790 5788 5787 5786 5785 5783 5780 5779 5777 5775 5774 5773 5772 5771 5770 5770 5770 5769 5768 5767 5765 5765 5765 5765 5765 5766 5766 5766 5765 5764 5763 5762 5762 5760 5759 5758 5758 5757
5800 5797 5794 5793 5790 5788 5786 5785 5784 5782 5780 5779 5777 5775 5773 5772 5772 5771 5769 5768 5768 5768 5767 5765 5764 5763 5761 5762 5763 5764 5765 5765 5765 5765 5764 5763 5762 5761 5760 5759 5758 5757 5756
5800 5797 5793 5791 5788 5787 5785 5783 5781 5780 5779 5777 5775 5773 5771 5770 5770 5769 5768 5766 5766 5765 5763 5762 5760 5761 5760 5760 5761 5762 5763 5765 5765 5764 5763 5763 5762 5760 5760 5758 5757 5756 5755
5799 5795 5791 5788 5786 5784 5781 5778 5776 5775 5775 5774 5773 5771 5770 5769 5768 5766 5765 5764 5763 5761 5759 5759 5758 5757 5757 5758 5755 5754 5758 5762 5762 5762 5762 5761 5760 5759 5758 5757 5756 5755 5753
5797 5794 5791 5787 5785 5782 5779 5777 5776 5774 5773 5772 5771 5769 5767 5766 5765 5765 5762 5761 5760 5759 5757 5756 5755 5753 5753 5755 5751 5747 5745 5748 5754 5760 5758 5758 5758 5758 5757 5756 5755 5754 5752
5797 5793 5791 5786 5783 5781 5779 5777 5775 5773 5770 5768 5766 5765 5764 5764 5763 5761 5760 5759 5758 5757 5754 5753 5753 5750 5747 5751 5752 5746 5740 5737 5743 5751 5753 5754 5754 5754 5754 5754 5753 5752 5750
5798 5795 5790 5785 5782 5779 5777 5774 5770 5766 5763 5763 5763 5762 5762 5761 5760 5759 5757 5756 5754 5753 5752 5751 5751 5749 5747 5745 5747 5749 5747 5744 5738 5737 5744 5749 5750 5750 5751 5751 5751 5749 5748
5800 5795 5790 5784 5781 5778 5775 5772 5768 5765 5764 5763 5762 5760 5759 5758 5757 5756 5754 5753 5751 5750 5749 5748 5748 5747 5745 5743 5742 5743 5743 5743 5742 5735 5732 5738 5742 5745 5747 5747 5747 5746 5745
5801 5795 5789 5783 5779 5777 5773 5770 5766 5763 5761 5759 5757 5756 5755 5755 5754 5752 5751 5749 5747 5746 5745 5745 5744 5743 5743 5742 5741 5740 5738 5736 5735 5734 5730 5731 5733 5737 5741 5742 5742 5742 5742